map of LFSO home
Great Circle Mapper logo
LFSO - Airport
Location
City:  Nancy, France
Name:Ochey
ICAO:LFSO

Details
Type:Airport (Aerodrome, Airfield)
Use:Military
Latitude:4834'59"N (48.583186)
Longitude:557'16"E (5.954525)
Elevation:1106 ft (337 m)
Variation:1.28E (WMM2015 magnetic declination)
0.13 annual change
Runways:1
Longest:7874 × 148 ft (2400 × 45 m)

Time
Time Zone:UTC+1 (DST+2)
Local Time:

Weather
METAR:LFSO 280100Z AUTO 22006KT 5000 BR SCT006 BKN048 BKN080 02/02 Q1023
TAF:LFSO 272000Z 2721/2821 23005KT 8000 BKN011
TEMPO 2800/2809 3000 -SN
BECMG 2812/2814 22015G25KT BKN020
BECMG 2814/2816 4000 -RA BKN010 OVC020
TEMPO 2816/2821 1500 RA OVC003

Related Locations
Nearby:
Farthest:CHT: 12082 mi / 19443 km
Waitangi [Tuuta], Chatham Islands, NZ

Find:

   beyond  
but within

Other Information
Maps:
NOTAMs:
Links:
Sources:

  
flag of France   

Sectional Chart

Flight Planning
at skyvector.com

Satellite Image

Google Maps Satellite View

 

Copyright © 2004-2015 Karl L. Swartz. All rights reserved.
The Great Circle Mapper name and logo are trademarks of the Great Circle Mapper.
All other trademarks mentioned herein belong to their respective owners.
Please see credits for attibutions and further copyright information.

  Follow gcmap on Facebook Follow gcmap on Twitter

hCard Microformat

Geo Microformat